ATLAS 5 CENTAUR DEB, 44038

Orbit data source: Space-Track

ATLAS 5 CENTAUR DEB, 44038 is space debris in HEO originally from a launch on Wed, 17 Sep 2014 UTC launched from the Air Force Eastern Test Range (AFETR). Debris objects in space refer to the collection of defunct objects orbiting the Earth. Examples of debris include non-operational satellites, rocket bodies, and fragments generated from explosions, collisions, or faulty payload assembly.

Loading next visibility...
ATLAS 5 CENTAUR DEB details
Identifier
44038, 2014-055BY
Orbit
HEO
Last TLE update2 days ago
Origin
Flag of USULA (US)
ManufacturerUnknown
MissionSpacecraft
Bus & MotorUnknown
MassUnknown
Launch date (UTC)
2014-09-17 (10 years ago)
Launch vehicleUnknown
Launch site
Air Force Eastern Test Range (AFETR)
Object type
Payload
Rocket body
Debris
Shape & HBRUnknown
Radar Cross SectionSmall (<0.1 m²)

Expand to show TLE details & history

TLE from 2 days ago
0 ATLAS 5 CENTAUR DEB
1 44038U 14055BY  24338.30770411 -.00000052  00000-0  00000-0 0  9995
2 44038  20.0587 237.5009 4540792   2.0051 359.4540  1.76613067 39366
Epoch: 2024-12-03T07:23Z
Definitive object data (Epoch: 2024-12-03T07:23:05.635Z)
Latitude-0.00008°
Longitude54.14851°
Altitude9,378.294 km
Speed6.067 km/s
True Right ascension15h 50m 09s
True Declination0° 00' 00"
Sunlit
Object was in daylight at TLE epoch
Visualization TLE readout
Latitude12.81187°
Longitude-164.44122°
Altitude28,114.329 km
Speed3.054 km/s
Apparent Right ascension01h 12m 30s
Apparent Declination7° 04' 27"
Sunlit
Object is in daylight
Visualization observer readout
Local Sidereal Time01:35:12
Azimuth190.317° SSW
Elevation56.766°
Doppler factor1
Orbital elements
Apogee altitude35,662.401 km
Perigee altitude9,405.6 km
Semi-major axis28,912.137 km
Eccentricity0.4540792
Inclination20.0587°
RAAN237.5009°
Arg. of periapsis2.0051°
True anomaly358.36787°
Mean anomaly359.454°
Eccentric anomaly358.9999°
Mean motion0.44149 °/min
BSTARUnknown
Orbital period815.42 mins
Loading maneuver chart data...

ATLAS 5 CENTAUR DEB Visibility forecast

Observer location: undefined°, undefined

Span
Click to sort rows by Start time (UTC) header in descending order
Start Az.
Max El. time (UTC)
Max El. Az.
Max El.
End time (UTC)
End Az.
564 mins2024-12-05 03:37:56.218Z190.31° SSW2024-12-05 03:37:56.218Z190.31° SSW39.903°2024-12-05 13:01:56.218Z153.894° SSE
|